Flag for Germany Weather past 2 weeks in Apolda, Thuringia, Germany

Now
30 °F

Passing clouds.


Feels Like: 25 °F
Forecast: 36 / 59 °F
Wind: 5 mph from Southwest

Location: Erfurt-Bindersleben

Current Time: Apr 19, 2015 at 5:36:55 AM

Latest Report: Apr 19, 2015 at 5:00 AM


Visibility: 31 mi

Pressure: 30.25 "Hg

Humidity: 86%

Dew point: 26 °F

Location of ApoldaLocation

Historic Weather in Apolda — Graph

°F

Apolda temperature yesterday

Maximum temperature yesterday: 51 °F (at 6:00 PM)
Minimum temperature yesterday: 37 °F (at 3:00 AM)
Average temperature yesterday: 43 °F

Past Weeks' High & Low Weather Summary

 TemperatureHumidityPressure
High72 °F (Apr 15, 4:00 PM)95% (Apr 10, 6:00 AM)30.64 "Hg (Apr 10, 6:00 AM)
Low25 °F (Apr 7, 7:00 AM)29% (Apr 15, 4:00 PM)29.90 "Hg (Apr 15, 8:00 PM)
Average47 °F65%30.25 "Hg
* Reported Apr 4 4:00 AM — Apr 19 4:00 AM, Apolda, Weather by CustomWeather, © 2015

Note: Actual official high and low records may vary slightly from our data, if they occured in-between our weather recording intervals... More about our weather records

Advertising

Apolda weather history for previous 24 hours

 ConditionsComfort  
Time TempWeatherWind HumidityBarometerVisibility
4:00 AM
Sun, Apr 19
30 °FClear.3 mph86%30.26 "Hg31 mi
3:00 AM33 °FClear.3 mph83%30.27 "Hg31 mi
2:00 AM32 °FClear.3 mph84%30.28 "Hg31 mi
1:00 AM34 °FPassing clouds.3 mph79%30.29 "Hg31 mi
12:00 AM39 °FClear.3 mph66%30.28 "Hg37 mi
11:00 PM
Sat, Apr 18
42 °FClear.2 mph54%30.28 "Hg43 mi
10:00 PM45 °FClear.1 mph49%30.27 "Hg43 mi
9:00 PM46 °FPassing clouds.1 mph46%30.26 "Hg47 mi
8:00 PM48 °FPassing clouds.1 mph44%30.26 "Hg47 mi
7:00 PM49 °FPassing clouds.1 mph42%30.26 "Hg47 mi
6:00 PM51 °FPassing clouds.3 mph42%30.27 "Hg47 mi
5:00 PM50 °FScattered clouds.2 mph45%30.28 "Hg47 mi
4:00 PM48 °FScattered clouds.2 mph46%30.29 "Hg47 mi
3:00 PM47 °FPartly sunny.3 mph48%30.31 "Hg47 mi
2:00 PM47 °FPartly sunny.5 mph49%30.32 "Hg47 mi
1:00 PM46 °FPartly sunny.3 mph55%30.32 "Hg47 mi
12:00 PM44 °FPartly sunny.3 mph59%30.33 "Hg47 mi
11:00 AM42 °FPartly sunny.5 mph66%30.32 "Hg6 mi
10:00 AM39 °FPartly sunny.3 mph80%30.32 "Hg47 mi
9:00 AM39 °FPartly sunny.3 mph81%30.30 "Hg37 mi
8:00 AM38 °FScattered clouds.5 mph80%30.29 "Hg37 mi
7:00 AM37 °FOvercast.3 mph80%30.27 "Hg37 mi
6:00 AM38 °FOvercast.3 mph77%30.24 "Hg37 mi
5:00 AM38 °FOvercast.3 mph77%30.23 "Hg47 mi
Weather by CustomWeather, © 2015

See weather overviewHow to use our weather pages